Regional Weather Roundup
Issued by NWS Cleveland, OH

Home | Current Version | Previous Version | Text Only | Print | Product List | Glossary Off
Versions: 1 2 3 4 5 6 7 8 9 10 11 12 13 14 15 16 17 18 19 20 21 22 23 24 25 26 27 28 29 30 31 32 33 34 35 36 37 38 39 40 41 42 43 44 45 46 47 48 49 50

000
ASUS41 KCLE 260110
RWRCLE
OHIO REGIONAL WEATHER ROUNDUP
NATIONAL WEATHER SERVICE CLEVELAND, OH
900 PM EDT SAT OCT 25 2014

NOTE: "FAIR" INDICATES FEW OR NO CLOUDS BELOW 12,000 FEET WITH NO
SIGNIFICANT WEATHER AND/OR OBSTRUCTIONS TO VISIBILITY.

OHZ001>008-015>018-024>027-034-035-043-044-260200-
   NORTHWEST OHIO

CITY           SKY/WX    TMP DP  RH WIND       PRES   REMARKS
DEFIANCE       CLEAR     56  34  43 W3        29.86R
FINDLAY        CLEAR     56  35  45 W8        29.84S
TOLEDO EXPRESS CLEAR     55  32  41 W9        29.83S
TOLEDO EXEC    CLEAR     55  31  39 W10       29.84R
LIMA           CLEAR     58  41  53 W3        29.87R
$$

OHZ009>014-019>023-028>033-038-089-260200-
   NORTHEAST OHIO

CITY           SKY/WX    TMP DP  RH WIND       PRES   REMARKS
CLE-HOPKINS    CLEAR     61  40  45 W17G29    29.80R
CLE-LAKEFRONT  CLEAR     59  48  67 W21       29.76R
CUY CO. ARPT   CLEAR     61  50  67 W12G23    29.76S
LORAIN-ELYRIA  LGT RAIN  59  39  47 NW14G21   29.80R
ASHTABULA      CLEAR     60  42  51 W14G21    29.73S
AKRON-CANTON   CLEAR     62  39  42 W14       29.78S
WOOSTER        CLEAR     61  40  45 W13       29.81S
MANSFIELD      CLEAR     59  39  47 W10G21    29.83R
YOUNGSTOWN     CLEAR     61  43  51 W12G22    29.74F
$$

OHZ042-051>053-060>062-070>072-077>081-260200-
  SOUTHWEST OHIO

CITY           SKY/WX    TMP DP  RH WIND       PRES   REMARKS
CINC-COVINGTON PTCLDY    67  51  56 SW6       29.92S
CINC-LUNKEN    CLEAR     65  53  65 SW10      29.91F
HAMILTON       CLEAR     60  52  74 W5        29.90F
DAYTON         CLEAR     59  45  59 W7        29.90S
WRIGHT-PAT AFB CLEAR     62  44  52 NW2       29.88S
DAYTON GENERAL CLEAR     65  50  58 W5        29.89S
WILMINGTON     CLEAR     63  51  65 W10       29.88F
$$

OHZ036-037-039>041-045>050-054>059-063>069-073>076-082>088-260200-
  CENTRAL AND SOUTHEAST OHIO

CITY           SKY/WX    TMP DP  RH WIND       PRES   REMARKS
COLUMBUS       CLEAR     62  43  49 NW12      29.85R
OSU AIRPORT    CLEAR     62  40  44 W13       29.86R
BOLTON FIELD   CLEAR     62  46  56 W7        29.86S
RICKENBACK AFB CLEAR     61  53  76 W8        29.85R
NEWARK         CLEAR     60  47  61 W8        29.84R
MARION         CLEAR     61  42  49 W13       29.86R
LANCASTER      CLEAR     64  53  67 W12       29.85R
ZANESVILLE     CLEAR     63  52  67 W10       29.82R
NEW PHILLY     CLEAR     64  45  49 NW8       29.80S
$$



USA.gov is the U.S. government's official web portal to all federal, state and local government web resources and services.